Overview Statistics Trail Chart Weather Telemetry Raw packets
 

This is the latest recevied weather packets stored in our database for station/object SR4DIG-13. If no packets are shown the sender has not sent any weather packets the latest 10 day(s).

<< 75 76 77 78 79 80 81 >>
Time Temp. Humidity Pressure Rain* Wind** Luminosity Snow
1788068749 20.56° C 82% 1015.4 hPa 0 mm - - -
1788068448 19.44° C 87% 1015.5 hPa 0 mm - - -
1788067931 18.33° C 88% 1015.3 hPa 0 mm - - -
1788067630 18.33° C 90% 1015.3 hPa 0 mm - - -
1788067329 17.78° C 91% 1015.3 hPa 0 mm - - -
1788067028 17.22° C 92% 1015.2 hPa 0 mm - - -
1788066727 16.67° C 92% 1015.2 hPa 0 mm - - -
1788066427 16.11° C 92% 1015.3 hPa 0 mm - - -
1788066125 15.56° C 93% 1015.3 hPa 0 mm - - -
1788065824 15° C 92% 1015.2 hPa 0 mm - - -
1788065523 14.44° C 92% 1015.1 hPa 0 mm - - -
1788065223 13.89° C 92% 1015 hPa 0 mm - - -
1788064934 13.33° C 92% 1015.1 hPa 0 mm - - -
1788064621 13.33° C 92% 1015.1 hPa 0 mm - - -
1788064320 12.78° C 92% 1015.1 hPa 0 mm - - -
1788064019 12.78° C 92% 1015 hPa 0 mm - - -
1788063718 12.78° C 92% 1015.1 hPa 0 mm - - -
1788063417 12.22° C 91% 1015 hPa 0 mm - - -
1788063117 12.22° C 91% 1015.1 hPa 0 mm - - -
1788062816 12.22° C 91% 1014.9 hPa 0 mm - - -
1788062514 12.22° C 91% 1015.1 hPa 0 mm - - -
1788062213 12.22° C 91% 1015 hPa 0 mm - - -
1788061912 12.22° C 91% 1015 hPa 0 mm - - -
1788061612 12.22° C 91% 1014.9 hPa 0 mm - - -
1788061077 12.22° C 91% 1014.8 hPa 0 mm - - -

* Rain latest hour (hover to see other rain measurements)
** Current wind speed in m/s (hover to see current wind gust speed)